Time,TemperatureF,DewpointF,PressureIn,WindDirection,WindDirectionDegrees,WindSpeedMPH,WindSpeedGustMPH,Humidity,HourlyPrecipIn,Conditions,Clouds,dailyrainin,SoftwareType,DateUTC
2013-04-02 00:00:00,37.0,25.0,-100.00,North,-999,-999.0,-999.0,60,-99.99,,,-99.99,,2013-04-01 23:00:00,
2013-04-02 00:42:00,37.0,25.0,-100.00,North,-999,-999.0,-999.0,60,-99.99,,,-99.99,,2013-04-01 23:42:00,
2013-04-02 00:52:00,37.0,25.0,-100.00,North,-999,-999.0,-999.0,60,-99.99,,,-99.99,,2013-04-01 23:52:00,
2013-04-02 01:00:00,35.0,25.0,-100.00,North,-999,-999.0,-999.0,65,-99.99,,,-99.99,,2013-04-02 00:00:00,
2013-04-02 01:41:00,35.0,25.0,-100.00,North,-999,-999.0,-999.0,65,-99.99,,,-99.99,,2013-04-02 00:41:00,
2013-04-02 01:52:00,35.0,25.0,-100.00,North,-999,-999.0,-999.0,65,-99.99,,,-99.99,,2013-04-02 00:52:00,
2013-04-02 02:00:00,35.0,25.0,-100.00,North,-999,-999.0,-999.0,66,-99.99,,,-99.99,,2013-04-02 01:00:00,
2013-04-02 02:52:00,35.0,25.0,-100.00,North,-999,-999.0,-999.0,66,-99.99,,,-99.99,,2013-04-02 01:52:00,
2013-04-02 03:00:00,35.0,26.0,-100.00,North,-999,-999.0,-999.0,66,-99.99,,,-99.99,,2013-04-02 02:00:00,
2013-04-02 03:41:00,35.0,26.0,-100.00,North,-999,-999.0,-999.0,66,-99.99,,,-99.99,,2013-04-02 02:41:00,
2013-04-02 03:52:00,35.0,26.0,-100.00,North,-999,-999.0,-999.0,66,-99.99,,,-99.99,,2013-04-02 02:52:00,
2013-04-02 05:00:00,36.0,26.0,-100.00,North,-999,-999.0,-999.0,66,-99.99,,,-99.99,,2013-04-02 04:00:00,
2013-04-02 05:42:00,36.0,26.0,-100.00,North,-999,-999.0,-999.0,66,-99.99,,,-99.99,,2013-04-02 04:42:00,
2013-04-02 05:52:00,36.0,26.0,-100.00,North,-999,-999.0,-999.0,66,-99.99,,,-99.99,,2013-04-02 04:52:00,
2013-04-02 06:42:00,37.0,27.0,-100.00,North,-999,-999.0,-999.0,65,-99.99,,,-99.99,,2013-04-02 05:42:00,
2013-04-02 06:52:00,37.0,27.0,-100.00,North,-999,-999.0,-999.0,65,-99.99,,,-99.99,,2013-04-02 05:52:00,
2013-04-02 07:00:00,37.0,27.0,-100.00,North,-999,-999.0,-999.0,68,-99.99,,,-99.99,,2013-04-02 06:00:00,
2013-04-02 07:41:00,37.0,27.0,-100.00,North,-999,-999.0,-999.0,68,-99.99,,,-99.99,,2013-04-02 06:41:00,
2013-04-02 07:52:00,37.0,27.0,-100.00,North,-999,-999.0,-999.0,68,-99.99,,,-99.99,,2013-04-02 06:52:00,
2013-04-02 08:00:00,37.0,26.0,-100.00,North,-999,-999.0,-999.0,65,-99.99,,,-99.99,,2013-04-02 07:00:00,
2013-04-02 08:41:00,37.0,26.0,-100.00,North,-999,-999.0,-999.0,65,-99.99,,,-99.99,,2013-04-02 07:41:00,
2013-04-02 08:52:00,37.0,26.0,-100.00,North,-999,-999.0,-999.0,65,-99.99,,,-99.99,,2013-04-02 07:52:00,
2013-04-02 09:00:00,38.0,26.0,-100.00,North,-999,-999.0,-999.0,63,-99.99,,,-99.99,,2013-04-02 08:00:00,
2013-04-02 09:31:00,38.0,26.0,-100.00,North,-999,-999.0,-999.0,63,-99.99,,,-99.99,,2013-04-02 08:31:00,
2013-04-02 09:41:00,38.0,26.0,-100.00,North,-999,-999.0,-999.0,63,-99.99,,,-99.99,,2013-04-02 08:41:00,
2013-04-02 09:51:00,38.0,26.0,-100.00,North,-999,-999.0,-999.0,63,-99.99,,,-99.99,,2013-04-02 08:51:00,
2013-04-02 10:00:00,38.0,26.0,-100.00,North,-999,-999.0,-999.0,62,-99.99,,,-99.99,,2013-04-02 09:00:00,
2013-04-02 10:42:00,38.0,26.0,-100.00,North,-999,-999.0,-999.0,62,-99.99,,,-99.99,,2013-04-02 09:42:00,
2013-04-02 10:52:00,38.0,26.0,-100.00,North,-999,-999.0,-999.0,62,-99.99,,,-99.99,,2013-04-02 09:52:00,
2013-04-02 11:00:00,40.0,30.0,-100.00,North,-999,-999.0,-999.0,67,-99.99,,,-99.99,,2013-04-02 10:00:00,
2013-04-02 11:41:00,40.0,30.0,-100.00,North,-999,-999.0,-999.0,67,-99.99,,,-99.99,,2013-04-02 10:41:00,
2013-04-02 11:52:00,40.0,30.0,-100.00,North,-999,-999.0,-999.0,67,-99.99,,,-99.99,,2013-04-02 10:52:00,
2013-04-02 12:00:00,40.0,31.0,-100.00,North,-999,-999.0,-999.0,69,-99.99,,,-99.99,,2013-04-02 11:00:00,
2013-04-02 12:42:00,40.0,31.0,-100.00,North,-999,-999.0,-999.0,69,-99.99,,,-99.99,,2013-04-02 11:42:00,
2013-04-02 12:52:00,40.0,31.0,-100.00,North,-999,-999.0,-999.0,69,-99.99,,,-99.99,,2013-04-02 11:52:00,
2013-04-02 13:00:00,41.0,29.0,-100.00,North,-999,-999.0,-999.0,61,-99.99,,,-99.99,,2013-04-02 12:00:00,
2013-04-02 13:41:00,41.0,29.0,-100.00,North,-999,-999.0,-999.0,61,-99.99,,,-99.99,,2013-04-02 12:41:00,
2013-04-02 13:52:00,41.0,29.0,-100.00,North,-999,-999.0,-999.0,61,-99.99,,,-99.99,,2013-04-02 12:52:00,
2013-04-02 14:00:00,42.0,29.0,-100.00,North,-999,-999.0,-999.0,59,-99.99,,,-99.99,,2013-04-02 13:00:00,
2013-04-02 14:42:00,42.0,29.0,-100.00,North,-999,-999.0,-999.0,59,-99.99,,,-99.99,,2013-04-02 13:42:00,
2013-04-02 14:52:00,42.0,29.0,-100.00,North,-999,-999.0,-999.0,59,-99.99,,,-99.99,,2013-04-02 13:52:00,
2013-04-02 15:00:00,43.0,31.0,-100.00,North,-999,-999.0,-999.0,63,-99.99,,,-99.99,,2013-04-02 14:00:00,
2013-04-02 15:42:00,43.0,31.0,-100.00,North,-999,-999.0,-999.0,63,-99.99,,,-99.99,,2013-04-02 14:42:00,
2013-04-02 15:51:00,43.0,31.0,-100.00,North,-999,-999.0,-999.0,63,-99.99,,,-99.99,,2013-04-02 14:51:00,
2013-04-02 16:00:00,43.0,31.0,-100.00,North,-999,-999.0,-999.0,64,-99.99,,,-99.99,,2013-04-02 15:00:00,
2013-04-02 16:42:00,43.0,31.0,-100.00,North,-999,-999.0,-999.0,64,-99.99,,,-99.99,,2013-04-02 15:42:00,
2013-04-02 16:53:00,43.0,31.0,-100.00,North,-999,-999.0,-999.0,64,-99.99,,,-99.99,,2013-04-02 15:53:00,
2013-04-02 17:00:00,43.0,32.0,-100.00,North,-999,-999.0,-999.0,64,-99.99,,,-99.99,,2013-04-02 16:00:00,
2013-04-02 17:42:00,43.0,32.0,-100.00,North,-999,-999.0,-999.0,64,-99.99,,,-99.99,,2013-04-02 16:42:00,
2013-04-02 17:52:00,43.0,32.0,-100.00,North,-999,-999.0,-999.0,64,-99.99,,,-99.99,,2013-04-02 16:52:00,
2013-04-02 18:00:00,42.0,27.0,-100.00,North,-999,-999.0,-999.0,55,-99.99,,,-99.99,,2013-04-02 17:00:00,
2013-04-02 18:32:00,42.0,27.0,-100.00,North,-999,-999.0,-999.0,55,-99.99,,,-99.99,,2013-04-02 17:32:00,
2013-04-02 18:41:00,42.0,27.0,-100.00,North,-999,-999.0,-999.0,55,-99.99,,,-99.99,,2013-04-02 17:41:00,
2013-04-02 18:52:00,42.0,27.0,-100.00,North,-999,-999.0,-999.0,55,-99.99,,,-99.99,,2013-04-02 17:52:00,
2013-04-02 19:00:00,42.0,29.0,-100.00,North,-999,-999.0,-999.0,59,-99.99,,,-99.99,,2013-04-02 18:00:00,
2013-04-02 19:42:00,42.0,29.0,-100.00,North,-999,-999.0,-999.0,59,-99.99,,,-99.99,,2013-04-02 18:42:00,
2013-04-02 19:52:00,42.0,29.0,-100.00,North,-999,-999.0,-999.0,59,-99.99,,,-99.99,,2013-04-02 18:52:00,
2013-04-02 20:00:00,42.0,29.0,-100.00,North,-999,-999.0,-999.0,61,-99.99,,,-99.99,,2013-04-02 19:00:00,
2013-04-02 20:52:00,42.0,29.0,-100.00,North,-999,-999.0,-999.0,61,-99.99,,,-99.99,,2013-04-02 19:52:00,
2013-04-02 21:00:00,42.0,29.0,-100.00,North,-999,-999.0,-999.0,61,-99.99,,,-99.99,,2013-04-02 20:00:00,
2013-04-02 21:41:00,42.0,29.0,-100.00,North,-999,-999.0,-999.0,61,-99.99,,,-99.99,,2013-04-02 20:41:00,
2013-04-02 21:52:00,42.0,29.0,-100.00,North,-999,-999.0,-999.0,61,-99.99,,,-99.99,,2013-04-02 20:52:00,
2013-04-02 22:00:00,42.0,30.0,-100.00,North,-999,-999.0,-999.0,61,-99.99,,,-99.99,,2013-04-02 21:00:00,
2013-04-02 22:42:00,42.0,30.0,-100.00,North,-999,-999.0,-999.0,61,-99.99,,,-99.99,,2013-04-02 21:42:00,
2013-04-02 23:00:00,43.0,27.0,-100.00,North,-999,-999.0,-999.0,54,-99.99,,,-99.99,,2013-04-02 22:00:00,
2013-04-02 23:32:00,43.0,27.0,-100.00,North,-999,-999.0,-999.0,54,-99.99,,,-99.99,,2013-04-02 22:32:00,
2013-04-02 23:42:00,43.0,27.0,-100.00,North,-999,-999.0,-999.0,54,-99.99,,,-99.99,,2013-04-02 22:42:00,
2013-04-02 23:52:00,43.0,27.0,-100.00,North,-999,-999.0,-999.0,54,-99.99,,,-99.99,,2013-04-02 22:52:00,